Time,TemperatureF,DewpointF,PressureIn,WindDirection,WindDirectionDegrees,WindSpeedMPH,WindSpeedGustMPH,Humidity,HourlyPrecipIn,Conditions,Clouds,dailyrainin,SoftwareType,DateUTC
2013-01-30 00:02:00,52.0,51.0,29.43,SE,131,1.0,2.0,98,0.13,,,1.01,,2013-01-30 06:02:00,
2013-01-30 00:11:00,52.0,51.0,29.43,SE,131,1.0,2.0,98,0.13,,,1.01,,2013-01-30 06:11:00,
2013-01-30 00:21:00,52.0,51.0,29.43,SSW,212,1.0,2.0,98,0.10,,,1.02,,2013-01-30 06:21:00,
2013-01-30 00:32:00,51.0,50.0,29.44,SW,221,2.0,2.0,98,0.08,,,1.03,,2013-01-30 06:32:00,
2013-01-30 00:41:00,51.0,50.0,29.44,SW,221,2.0,2.0,98,0.08,,,1.03,,2013-01-30 06:41:00,
2013-01-30 00:52:00,51.0,51.0,29.41,SSE,156,1.0,2.0,99,0.06,,,1.04,,2013-01-30 06:52:00,
2013-01-30 01:02:00,51.0,51.0,29.41,SSE,167,3.0,5.0,99,0.04,,,1.05,,2013-01-30 07:02:00,
2013-01-30 01:11:00,51.0,51.0,29.41,SSE,167,3.0,5.0,99,0.04,,,1.05,,2013-01-30 07:11:00,
2013-01-30 01:21:00,51.0,51.0,29.39,SSW,196,3.0,5.0,99,0.03,,,1.04,,2013-01-30 07:21:00,
2013-01-30 01:32:00,51.0,51.0,29.38,SSE,158,2.0,4.0,99,0.03,,,1.05,,2013-01-30 07:32:00,
2013-01-30 01:41:00,51.0,51.0,29.38,SSE,158,2.0,4.0,99,0.03,,,1.05,,2013-01-30 07:41:00,
2013-01-30 01:52:00,51.0,51.0,29.41,SW,215,2.0,6.0,99,0.02,,,1.05,,2013-01-30 07:52:00,
2013-01-30 02:01:00,50.0,49.0,29.43,SW,228,2.0,5.0,98,0.02,,,1.06,,2013-01-30 08:01:00,
2013-01-30 02:11:00,50.0,49.0,29.43,SW,228,2.0,5.0,98,0.02,,,1.06,,2013-01-30 08:11:00,
2013-01-30 02:21:00,50.0,49.0,29.42,SW,230,0.0,2.0,98,0.04,,,1.07,,2013-01-30 08:21:00,
2013-01-30 02:32:00,50.0,49.0,29.43,SW,231,0.0,2.0,98,0.04,,,1.08,,2013-01-30 08:32:00,
2013-01-30 02:42:00,50.0,49.0,29.43,SW,231,0.0,2.0,98,0.04,,,1.08,,2013-01-30 08:42:00,
2013-01-30 02:52:00,50.0,50.0,29.41,South,176,2.0,5.0,99,0.06,,,1.10,,2013-01-30 08:52:00,
2013-01-30 03:01:00,50.0,50.0,29.44,SSW,209,2.0,4.0,99,0.07,,,1.12,,2013-01-30 09:01:00,
2013-01-30 03:11:00,50.0,50.0,29.44,SSW,209,2.0,4.0,99,0.07,,,1.12,,2013-01-30 09:11:00,
2013-01-30 03:21:00,50.0,50.0,29.44,SW,222,2.0,5.0,99,0.06,,,1.12,,2013-01-30 09:21:00,
2013-01-30 03:32:00,47.0,46.0,29.40,ENE,61,6.0,10.0,96,0.07,,,1.14,,2013-01-30 09:32:00,
2013-01-30 03:41:00,47.0,46.0,29.40,ENE,61,6.0,10.0,96,0.07,,,1.14,,2013-01-30 09:41:00,
2013-01-30 03:52:00,44.0,43.0,29.34,ENE,68,9.0,16.0,97,0.08,,,1.17,,2013-01-30 09:52:00,
2013-01-30 04:01:00,43.0,42.0,29.37,NNE,23,7.0,10.0,98,0.06,,,1.17,,2013-01-30 10:01:00,
2013-01-30 04:11:00,43.0,42.0,29.37,NNE,23,7.0,10.0,98,0.06,,,1.17,,2013-01-30 10:11:00,
2013-01-30 04:21:00,42.0,41.0,29.41,North,349,4.0,8.0,98,0.05,,,1.17,,2013-01-30 10:21:00,
2013-01-30 04:31:00,42.0,41.0,29.41,North,360,5.0,7.0,98,0.03,,,1.17,,2013-01-30 10:31:00,
2013-01-30 04:41:00,42.0,41.0,29.41,North,360,5.0,7.0,98,0.03,,,1.17,,2013-01-30 10:41:00,
2013-01-30 04:52:00,41.0,40.0,29.41,NNW,329,5.0,9.0,98,0.02,,,1.19,,2013-01-30 10:52:00,
2013-01-30 05:02:00,40.0,39.0,29.41,NE,37,4.0,8.0,98,0.05,,,1.22,,2013-01-30 11:02:00,
2013-01-30 05:11:00,40.0,39.0,29.41,NE,37,4.0,8.0,98,0.05,,,1.22,,2013-01-30 11:11:00,
2013-01-30 05:22:00,40.0,39.0,29.42,NE,53,3.0,7.0,98,0.06,,,1.23,,2013-01-30 11:22:00,
2013-01-30 05:32:00,40.0,39.0,29.38,ENE,58,5.0,7.0,98,0.07,,,1.24,,2013-01-30 11:32:00,
2013-01-30 05:42:00,40.0,39.0,29.38,ENE,58,5.0,7.0,98,0.07,,,1.24,,2013-01-30 11:42:00,
2013-01-30 05:52:00,39.0,38.0,29.36,ENE,59,6.0,8.0,98,0.05,,,1.24,,2013-01-30 11:52:00,
2013-01-30 06:02:00,39.0,38.0,29.37,NE,45,6.0,10.0,98,0.02,,,1.24,,2013-01-30 12:02:00,
2013-01-30 06:12:00,39.0,38.0,29.37,NE,45,6.0,10.0,98,0.02,,,1.24,,2013-01-30 12:12:00,
2013-01-30 06:22:00,39.0,38.0,29.37,NE,35,5.0,10.0,98,0.01,,,1.24,,2013-01-30 12:22:00,
2013-01-30 06:32:00,39.0,38.0,29.36,North,9,9.0,11.0,98,0.00,,,1.24,,2013-01-30 12:32:00,
2013-01-30 06:42:00,39.0,38.0,29.36,North,9,9.0,11.0,98,0.00,,,1.24,,2013-01-30 12:42:00,
2013-01-30 07:02:00,38.0,37.0,29.37,NNE,23,5.0,9.0,98,0.01,,,1.25,,2013-01-30 13:02:00,
2013-01-30 07:12:00,38.0,37.0,29.37,NNE,23,5.0,9.0,98,0.01,,,1.25,,2013-01-30 13:12:00,
2013-01-30 07:23:00,38.0,37.0,29.37,NNE,27,5.0,9.0,98,0.01,,,1.25,,2013-01-30 13:23:00,
2013-01-30 07:32:00,38.0,37.0,29.37,NE,54,5.0,10.0,98,0.02,,,1.26,,2013-01-30 13:32:00,
2013-01-30 07:42:00,38.0,37.0,29.37,NE,54,5.0,10.0,98,0.02,,,1.26,,2013-01-30 13:42:00,
2013-01-30 07:53:00,37.0,36.0,29.38,NE,53,7.0,9.0,98,0.03,,,1.27,,2013-01-30 13:53:00,
2013-01-30 08:02:00,37.0,36.0,29.36,NE,51,6.0,10.0,98,0.03,,,1.28,,2013-01-30 14:02:00,
2013-01-30 08:12:00,37.0,36.0,29.36,NE,51,6.0,10.0,98,0.03,,,1.28,,2013-01-30 14:12:00,
2013-01-30 08:22:00,37.0,36.0,29.35,NE,55,5.0,9.0,98,0.03,,,1.28,,2013-01-30 14:22:00,
2013-01-30 08:32:00,37.0,36.0,29.35,ENE,72,4.0,7.0,98,0.02,,,1.28,,2013-01-30 14:32:00,
2013-01-30 08:42:00,37.0,36.0,29.35,ENE,72,4.0,7.0,98,0.02,,,1.28,,2013-01-30 14:42:00,
2013-01-30 08:52:00,37.0,36.0,29.35,NE,42,6.0,7.0,98,0.01,,,1.28,,2013-01-30 14:52:00,
2013-01-30 09:03:00,37.0,36.0,29.35,ENE,78,4.0,7.0,98,0.01,,,1.29,,2013-01-30 15:03:00,
2013-01-30 09:12:00,37.0,36.0,29.35,ENE,78,4.0,7.0,98,0.01,,,1.29,,2013-01-30 15:12:00,
2013-01-30 09:23:00,38.0,37.0,29.32,ENE,76,5.0,7.0,98,0.01,,,1.29,,2013-01-30 15:23:00,
2013-01-30 09:33:00,38.0,37.0,29.32,NE,42,2.0,6.0,98,0.01,,,1.29,,2013-01-30 15:33:00,
2013-01-30 09:43:00,38.0,37.0,29.32,NE,42,2.0,6.0,98,0.01,,,1.29,,2013-01-30 15:43:00,
2013-01-30 09:53:00,38.0,37.0,29.32,ESE,103,3.0,5.0,98,0.01,,,1.29,,2013-01-30 15:53:00,
2013-01-30 10:03:00,38.0,37.0,29.32,ESE,103,3.0,5.0,98,0.01,,,1.29,,2013-01-30 16:03:00,
2013-01-30 10:12:00,38.0,37.0,29.32,ESE,103,3.0,5.0,98,0.01,,,1.29,,2013-01-30 16:12:00,
2013-01-30 10:23:00,38.0,37.0,29.29,East,89,3.0,7.0,98,0.02,,,1.31,,2013-01-30 16:23:00,
2013-01-30 10:33:00,38.0,37.0,29.28,ENE,75,6.0,8.0,98,0.03,,,1.32,,2013-01-30 16:33:00,
2013-01-30 10:42:00,38.0,37.0,29.28,ENE,75,6.0,8.0,98,0.03,,,1.32,,2013-01-30 16:42:00,
2013-01-30 10:52:00,38.0,37.0,29.28,ENE,75,6.0,8.0,98,0.03,,,1.32,,2013-01-30 16:52:00,
2013-01-30 11:02:00,40.0,40.0,29.26,East,94,4.0,7.0,99,0.02,,,1.32,,2013-01-30 17:02:00,
2013-01-30 11:12:00,40.0,40.0,29.26,East,94,4.0,7.0,99,0.02,,,1.32,,2013-01-30 17:12:00,
2013-01-30 11:22:00,40.0,40.0,29.26,ESE,110,3.0,7.0,99,0.02,,,1.32,,2013-01-30 17:22:00,
2013-01-30 11:32:00,43.0,43.0,29.26,SSE,148,6.0,9.0,99,0.00,,,1.32,,2013-01-30 17:32:00,
2013-01-30 11:42:00,43.0,43.0,29.26,SSE,148,6.0,9.0,99,0.00,,,1.32,,2013-01-30 17:42:00,
2013-01-30 11:53:00,44.0,44.0,29.25,South,186,5.0,9.0,99,0.00,,,1.32,,2013-01-30 17:53:00,
2013-01-30 12:02:00,46.0,46.0,29.24,SW,219,11.0,15.0,99,0.00,,,1.32,,2013-01-30 18:02:00,
2013-01-30 12:12:00,46.0,46.0,29.24,SW,219,11.0,15.0,99,0.00,,,1.32,,2013-01-30 18:12:00,
2013-01-30 12:22:00,47.0,46.0,29.24,WSW,258,7.0,15.0,96,0.00,,,1.32,,2013-01-30 18:22:00,
2013-01-30 12:33:00,45.0,42.0,29.24,WSW,253,11.0,20.0,89,0.00,,,1.32,,2013-01-30 18:33:00,
2013-01-30 12:42:00,45.0,42.0,29.24,WSW,253,11.0,20.0,89,0.00,,,1.32,,2013-01-30 18:42:00,
2013-01-30 12:53:00,43.0,41.0,29.25,WSW,256,11.0,21.0,91,0.00,,,1.32,,2013-01-30 18:53:00,
2013-01-30 13:02:00,42.0,39.0,29.26,West,276,8.0,19.0,90,0.00,,,1.32,,2013-01-30 19:02:00,
2013-01-30 13:12:00,42.0,39.0,29.26,West,276,8.0,19.0,90,0.00,,,1.32,,2013-01-30 19:12:00,
2013-01-30 13:22:00,41.0,38.0,29.25,WSW,239,10.0,21.0,89,0.00,,,1.32,,2013-01-30 19:22:00,
2013-01-30 13:32:00,40.0,37.0,29.24,WSW,252,10.0,17.0,88,0.00,,,1.32,,2013-01-30 19:32:00,
2013-01-30 13:43:00,40.0,37.0,29.24,WSW,252,10.0,17.0,88,0.00,,,1.32,,2013-01-30 19:43:00,
2013-01-30 13:53:00,40.0,36.0,29.25,SW,228,12.0,20.0,87,0.00,,,1.32,,2013-01-30 19:53:00,
2013-01-30 14:03:00,40.0,36.0,29.27,West,267,10.0,17.0,87,0.00,,,1.32,,2013-01-30 20:03:00,
2013-01-30 14:12:00,40.0,36.0,29.27,West,267,10.0,17.0,87,0.00,,,1.32,,2013-01-30 20:12:00,
2013-01-30 14:22:00,40.0,37.0,29.27,WSW,255,7.0,18.0,89,0.00,,,1.32,,2013-01-30 20:22:00,
2013-01-30 14:33:00,40.0,37.0,29.27,SW,230,8.0,16.0,89,0.00,,,1.32,,2013-01-30 20:33:00,
2013-01-30 14:42:00,40.0,37.0,29.27,SW,230,8.0,16.0,89,0.00,,,1.32,,2013-01-30 20:42:00,
2013-01-30 14:53:00,40.0,37.0,29.26,WSW,245,10.0,18.0,89,0.00,,,1.32,,2013-01-30 20:53:00,
2013-01-30 15:03:00,41.0,37.0,29.26,WSW,248,10.0,18.0,85,0.00,,,1.32,,2013-01-30 21:03:00,
2013-01-30 15:12:00,41.0,37.0,29.26,WSW,248,10.0,18.0,85,0.00,,,1.32,,2013-01-30 21:12:00,
2013-01-30 15:23:00,39.0,35.0,29.27,WSW,248,10.0,21.0,85,0.00,,,1.32,,2013-01-30 21:23:00,
2013-01-30 15:32:00,38.0,35.0,29.27,WNW,287,9.0,16.0,89,0.00,,,1.32,,2013-01-30 21:32:00,
2013-01-30 15:42:00,38.0,35.0,29.27,WNW,287,9.0,16.0,89,0.00,,,1.32,,2013-01-30 21:42:00,
2013-01-30 15:52:00,37.0,35.0,29.30,WNW,294,7.0,17.0,93,0.01,,,1.33,,2013-01-30 21:52:00,
2013-01-30 16:02:00,35.0,33.0,29.31,WNW,297,9.0,17.0,94,0.02,,,1.34,,2013-01-30 22:02:00,
2013-01-30 16:12:00,35.0,33.0,29.31,WNW,297,9.0,17.0,94,0.02,,,1.34,,2013-01-30 22:12:00,
2013-01-30 16:22:00,33.0,31.0,29.33,WNW,300,10.0,19.0,94,0.02,,,1.34,,2013-01-30 22:22:00,
2013-01-30 16:32:00,32.0,31.0,29.35,NW,307,14.0,23.0,95,0.02,,,1.34,,2013-01-30 22:32:00,
2013-01-30 16:42:00,32.0,31.0,29.35,NW,307,14.0,23.0,95,0.02,,,1.34,,2013-01-30 22:42:00,
2013-01-30 16:53:00,32.0,31.0,29.36,WNW,293,8.0,18.0,95,0.01,,,1.34,,2013-01-30 22:53:00,
2013-01-30 17:02:00,31.0,29.0,29.37,NW,315,9.0,17.0,94,0.00,,,1.34,,2013-01-30 23:02:00,
2013-01-30 17:12:00,31.0,29.0,29.37,NW,315,9.0,17.0,94,0.00,,,1.34,,2013-01-30 23:12:00,
2013-01-30 17:22:00,31.0,29.0,29.38,WNW,297,9.0,19.0,91,0.00,,,1.34,,2013-01-30 23:22:00,
2013-01-30 17:32:00,31.0,29.0,29.39,WNW,302,10.0,20.0,92,0.00,,,1.34,,2013-01-30 23:32:00,
2013-01-30 17:42:00,31.0,29.0,29.39,WNW,302,10.0,20.0,92,0.00,,,1.34,,2013-01-30 23:42:00,
2013-01-30 17:52:00,30.0,29.0,29.41,NW,319,9.0,15.0,95,0.00,,,1.34,,2013-01-30 23:52:00,
2013-01-30 18:02:00,30.0,28.0,29.42,WNW,291,11.0,17.0,94,0.00,,,1.34,,2013-01-31 00:02:00,
2013-01-30 18:11:00,30.0,28.0,29.42,WNW,291,11.0,17.0,94,0.00,,,1.34,,2013-01-31 00:11:00,
2013-01-30 18:22:00,30.0,28.0,29.44,WNW,291,9.0,21.0,93,0.00,,,1.32,,2013-01-31 00:22:00,
2013-01-30 18:32:00,30.0,28.0,29.45,NW,312,8.0,15.0,94,0.00,,,1.32,,2013-01-31 00:32:00,
2013-01-30 18:42:00,30.0,28.0,29.45,NW,312,8.0,15.0,94,0.00,,,1.32,,2013-01-31 00:42:00,
2013-01-30 18:53:00,29.0,27.0,29.47,NW,307,9.0,18.0,92,0.00,,,1.32,,2013-01-31 00:53:00,
2013-01-30 19:02:00,29.0,27.0,29.47,WNW,289,9.0,16.0,94,0.00,,,1.32,,2013-01-31 01:02:00,
2013-01-30 19:11:00,29.0,27.0,29.47,WNW,289,9.0,16.0,94,0.00,,,1.32,,2013-01-31 01:11:00,
2013-01-30 19:21:00,28.0,26.0,29.48,WNW,290,12.0,26.0,92,0.00,,,0.82,,2013-01-31 01:21:00,
2013-01-30 19:31:00,28.0,26.0,29.49,NW,311,10.0,18.0,93,0.00,,,0.82,,2013-01-31 01:31:00,
2013-01-30 19:42:00,28.0,26.0,29.49,NW,311,10.0,18.0,93,0.00,,,0.82,,2013-01-31 01:42:00,
2013-01-30 19:52:00,28.0,27.0,29.49,WNW,302,7.0,17.0,94,0.00,,,0.82,,2013-01-31 01:52:00,
2013-01-30 20:01:00,27.0,25.0,29.50,WNW,288,12.0,20.0,93,0.00,,,0.82,,2013-01-31 02:01:00,
2013-01-30 20:11:00,27.0,25.0,29.50,WNW,288,12.0,20.0,93,0.00,,,0.82,,2013-01-31 02:11:00,
2013-01-30 20:21:00,26.0,23.0,29.51,NW,310,13.0,22.0,90,0.00,,,0.67,,2013-01-31 02:21:00,
2013-01-30 20:32:00,26.0,23.0,29.52,WNW,292,13.0,21.0,89,0.00,,,0.67,,2013-01-31 02:32:00,
2013-01-30 20:41:00,26.0,23.0,29.52,WNW,292,13.0,21.0,89,0.00,,,0.67,,2013-01-31 02:41:00,
2013-01-30 20:52:00,26.0,23.0,29.52,WNW,292,13.0,21.0,89,0.00,,,0.67,,2013-01-31 02:52:00,
2013-01-30 21:03:00,25.0,22.0,29.54,WNW,297,14.0,23.0,88,0.00,,,0.67,,2013-01-31 03:03:00,
2013-01-30 21:11:00,25.0,22.0,29.54,WNW,297,14.0,23.0,88,0.00,,,0.67,,2013-01-31 03:11:00,
2013-01-30 21:21:00,25.0,22.0,29.56,West,269,9.0,27.0,87,0.00,,,0.64,,2013-01-31 03:21:00,
2013-01-30 21:32:00,24.0,20.0,29.57,WNW,288,13.0,22.0,86,0.00,,,0.64,,2013-01-31 03:32:00,
2013-01-30 21:41:00,24.0,20.0,29.57,WNW,288,13.0,22.0,86,0.00,,,0.64,,2013-01-31 03:41:00,
2013-01-30 21:52:00,24.0,21.0,29.58,NW,313,10.0,19.0,87,0.00,,,0.64,,2013-01-31 03:52:00,
2013-01-30 22:02:00,24.0,21.0,29.59,WNW,295,11.0,16.0,88,0.00,,,0.64,,2013-01-31 04:02:00,
2013-01-30 22:11:00,24.0,21.0,29.59,WNW,295,11.0,16.0,88,0.00,,,0.64,,2013-01-31 04:11:00,
2013-01-30 22:22:00,24.0,21.0,29.59,WNW,297,11.0,20.0,89,0.00,,,0.58,,2013-01-31 04:22:00,
2013-01-30 22:31:00,23.0,20.0,29.61,WNW,297,10.0,17.0,88,0.00,,,0.58,,2013-01-31 04:31:00,
2013-01-30 22:41:00,23.0,20.0,29.61,WNW,297,10.0,17.0,88,0.00,,,0.58,,2013-01-31 04:41:00,
2013-01-30 22:52:00,22.0,19.0,29.62,WNW,293,12.0,20.0,88,0.00,,,0.58,,2013-01-31 04:52:00,
2013-01-30 23:03:00,22.0,19.0,29.62,WNW,287,11.0,22.0,88,0.00,,,0.58,,2013-01-31 05:03:00,
2013-01-30 23:11:00,22.0,19.0,29.62,WNW,287,11.0,22.0,88,0.00,,,0.58,,2013-01-31 05:11:00,
2013-01-30 23:22:00,22.0,19.0,29.64,NW,305,12.0,19.0,88,0.00,,,0.46,,2013-01-31 05:22:00,
2013-01-30 23:32:00,22.0,19.0,29.64,NW,305,12.0,19.0,88,0.00,,,0.46,,2013-01-31 05:32:00,
2013-01-30 23:41:00,21.0,16.0,29.65,WNW,284,14.0,25.0,82,0.00,,,0.46,,2013-01-31 05:41:00,
2013-01-30 23:52:00,21.0,16.0,29.65,WNW,284,14.0,25.0,82,0.00,,,0.46,,2013-01-31 05:52:00,